Regional Weather Roundup
Issued by NWS

Home | Current Version | Previous Version | Text Only | Print | Product List | Glossary On
Versions: 1 2 3 4 5 6 7 8 9 10 11 12 13 14 15 16 17 18 19 20 21 22 23 24 25 26 27 28 29 30 31 32 33 34 35 36 37 38 39 40 41 42 43 44 45 46 47 48 49 50
148
ASUS43 KTOP 111908
RWRKS

WEATHER ROUNDUP FOR KANSAS
NATIONAL WEATHER SERVICE GOODLAND KS
100 PM CST THU FEB 11 2016

NOTE:  "FAIR" INDICATES FEW OR NO CLOUDS BELOW 12,000 FEET WITH NO
SIGNIFICANT WEATHER AND/OR OBSTRUCTIONS TO VISIBILITY.

KSZ001>006-013>018-027>032-041>047-112000-
NORTHWEST KANSAS

CITY           SKY/WX    TMP DP  RH WIND       PRES   REMARKS
GOODLAND       CLOUDY    55  27  34 SW18      30.09F
HAYS           MOSUNNY   34  21  60 S5        30.17F
HILL CITY      CLOUDY    35  30  82 S8        30.17F
RUSSELL        SUNNY     35  27  72 SE8       30.18F
$$

KSZ061>065-074>080-084>089-112000-
SOUTHWEST KANSAS

CITY           SKY/WX    TMP DP  RH WIND       PRES   REMARKS
DODGE CITY     SUNNY     48  30  49 SW8       30.18F
ELKHART          N/A     58  29  33 S6          N/A
GARDEN CITY    CLOUDY    54  31  41 SW17G25   30.13F
GREAT BEND     SUNNY     36  23  60 SE5       30.20F
LIBERAL        SUNNY     55  34  44 S8        30.18F
PRATT          SUNNY     39  26  58 CALM      30.21F
$$

KSZ066>073-081>083-090>101-112000-
SOUTHEAST KANSAS

CITY           SKY/WX    TMP DP  RH WIND       PRES   REMARKS
CHANUTE        SUNNY     42  23  46 VRB7      30.21F
COFFEYVILLE    SUNNY     45  23  42 NE9       30.21F
HUTCHINSON     SUNNY     40  24  53 CALM      30.22F
MEDICINE LODGE   N/A     46  27  47 W5        30.21F
NEWTON         SUNNY     39  23  52 NE5       30.23F
PARSONS        SUNNY     44  24  45 VRB6      30.22F
WICHITA INTL   MOSUNNY   43  23  45 CALM      30.21F
WICHITA JABRA  SUNNY     42  24  49 VRB3      30.21F
WICHITA MCCONL SUNNY     43  24  47 VRB5      30.21F
WINFIELD       MOSUNNY   46  24  42 E5        30.22F
$$

KSZ007>012-019>026-033>040-048>060-102>105-112000-
NORTHEAST KANSAS

CITY           SKY/WX    TMP DP  RH WIND       PRES   REMARKS
CONCORDIA      CLOUDY    26  22  84 SE7       30.21F FOG
EMPORIA        SUNNY     39  23  52 NE8       30.22F
LAWRENCE       MOSUNNY   35  20  54 CALM      30.26F
MANHATTAN      CLOUDY    32  22  66 VRB3      30.26F
MARYSVILLE     CLOUDY    28  21  74 S6        30.24F
OLATHE IND     MOSUNNY   37  21  52 NE7       30.25F
OLATHE EXE     MOSUNNY   35  20  54 NE7       30.25F
SALINA         CLOUDY    31  23  72 CALM      30.24F
TOPEKA BILLARD SUNNY     37  20  50 E6        30.25F
TOPEKA FORBES  SUNNY     37  21  52 SE8       30.23F
$$




USA.gov is the U.S. government's official web portal to all federal, state and local government web resources and services.